Terminal Aerodrome Forecast
Issued by NWS Columbia, SC

Home | Current Version | Previous Version | Text Only | Print | Product List | Glossary On
Versions: 1 2 3 4 5 6 7 8 9 10 11 12 13 14 15 16 17 18 19 20 21 22 23 24 25 26 27 28 29 30 31 32 33 34 35 36 37 38 39 40 41 42 43 44 45 46 47 48 49 50
000
FTUS42 KCAE 251317 AAA
TAFAGS
TAF AMD
KAGS 251317Z 2513/2612 21008KT P6SM OVC008 WS010/21030KT
      TEMPO 2513/2515 SCT008
     FM251500 22012G21KT P6SM SCT012 BKN045
     FM251800 25010G19KT P6SM VCSH SCT020 BKN080
     FM260000 23009KT 6SM -SHRA BR SCT025 BKN035 OVC070
     FM260400 VRB04KT 5SM -RA BR SCT010 BKN025 OVC040=

USA.gov is the U.S. government's official web portal to all federal, state and local government web resources and services.